Regional Weather Roundup
Issued by NWS

Home | Current Version | Previous Version | Graphics & Text | Print | Product List | Glossary On
Versions: 1 2 3 4 5 6 7 8 9 10 11 12 13 14 15 16 17 18 19 20 21 22 23 24 25 26 27 28 29 30 31 32 33 34 35 36 37 38 39 40 41 42 43 44 45 46 47 48 49 50
000
ASUS43 KLOT 242009
RWRIL

ILLINOIS REGIONAL WEATHER ROUNDUP
NATIONAL WEATHER SERVICE CHICAGO/ROMEOVILLE IL
300 PM CDT THU MAY 24 2018

NOTE: "FAIR" INDICATES FEW OR NO CLOUDS BELOW 12,000 FEET WITH NO
SIGNIFICANT WEATHER AND/OR OBSTRUCTIONS TO VISIBILITY.

* THESE STATIONS ARE NOT UNDER NWS QUALITY CONTROL. THEY ALSO MAY NOT
  REPORT WEATHER SUCH AS PRECIPITATION OR FOG.

ILZ001-002-007-009-015-016-024-242100-
NORTHWEST ILLINOIS

CITY           SKY/WX    TMP DP  RH WIND       PRES   REMARKS
MOLINE         FAIR      89  63  41 S8        30.06F HX  90
STERLING*      FAIR      87  60  40 S9        30.08F HX  87
$$

ILZ003-004-008-010-011-017-018-242100-
NORTH CENTRAL ILLINOIS

CITY           SKY/WX    TMP DP  RH WIND       PRES   REMARKS
ROCKFORD       PTSUNNY   84  60  44 S8        30.10F HX  84
$$

ILZ005-006-012>014-019>023-242100-
NORTHEAST ILLINOIS

CITY           SKY/WX    TMP DP  RH WIND       PRES   REMARKS
CHICAGO-OHARE  PTSUNNY   85  55  35 SW6       30.10F HX  83
CHICAGO-MIDWAY FAIR      86  53  32 S8        30.11S HX  84
AURORA         FAIR      86  58  38 S6        30.11F HX  85
WAUKEGAN       FAIR      77  56  48 SE10      30.11F
DUPAGE AIRPORT FAIR      85  58  39 S7        30.11F HX  84
WHEELING       FAIR      85  56  37 S12       30.12F HX  84
NORTHERLY ISL    N/A     66  55  67 E7          N/A
$$

LMZ740>746-242100-
SOUTHERN LAKE MICHIGAN

STATION/POSITION SKY/WX   TEMP    WIND        PRES    VSBY  WAVE
                          AIR SEA DIR/SP/G                  HT/PER
                          (F)     (DEG/KT/KT) (MB)    (MI)  (FT/S)
SOUTHERN BUOY              52 40  150/  8/  8 1021.7          0
WILMETTE HARBOR            57 53  110/  8/ 10   N/A           1/ 2
HARRISON CRIB              74     100/ 16/ 17   N/A
BURNHAM HARBOR             66      90/  5/ 10   N/A
CALUMET HARBOR             69      50/  9/ 11 1019.7F
BURNS HARBOR               68      70/  9/ 12 1020.7F
MICHIGAN CITY              67      30/  7/  7   N/A
MICHIGAN CITY 6N           66 61   30/  6/  6   N/A           0
ST. JOSEPH                 68 62  350/  4/  6 1020.6F         0
$$

ILZ025>027-034>036-040-047-049-050-058-095>099-242100-
WEST-CENTRAL ILLINOIS

CITY           SKY/WX    TMP DP  RH WIND       PRES   REMARKS
QUINCY         SUNNY     87  58  37 SE7       30.08F HX  86
$$

ILZ028>032-037-038-041>044-048-051>054-059>061-242100-
CENTRAL ILLINOIS

CITY           SKY/WX    TMP DP  RH WIND       PRES   REMARKS
BLOOMINGTON    FAIR      86  55  34 S7        30.12F HX  84
DECATUR        FAIR      87  55  33 S10       30.10F HX  85
PEORIA         FAIR      87  61  41 S8        30.09F HX  87
SPRINGFIELD    FAIR      90  58  33 MISG      30.10F HX  89
TAYLORVILLE    NOT AVBL
$$

ILZ033-039-045-046-055>057-062-063-242100-
EAST-CENTRAL ILLINOIS

CITY           SKY/WX    TMP DP  RH WIND       PRES   REMARKS
CHAMPAIGN      FAIR      87  52  29 CALM      30.12F HX  85
MATTOON        FAIR      83  58  42 SE7       30.11F HX  83
$$

ILZ079-100>102-242100-
SOUTHWEST ILLINOIS

CITY           SKY/WX    TMP DP  RH WIND       PRES   REMARKS
ALTON          MOSUNNY   86  66  51 SE9       30.10F HX  88
BELLEVILLE     SUNNY     86  62  43 SE8       30.07F HX  86
CAHOKIA*       MOSUNNY   88  64  44 VRB5      30.08F HX  89
$$

ILZ064>066-069>071-074>076-080>082-084>086-088>090-092>094-242100-
SOUTH-CENTRAL ILLINOIS

CITY           SKY/WX    TMP DP  RH WIND       PRES   REMARKS
CARBONDALE     FAIR      87  63  44 CALM      30.08F HX  88
MARION         MOSUNNY   84  61  45 E6        30.09F HX  84
MT. VERNON     FAIR      87  59  38 N6        30.09F HX  86
SALEM*         FAIR      88  55  32 E6        30.10F HX  86
$$

ILZ067-068-072-073-078-083-087-091-242100-
SOUTHEAST ILLINOIS

CITY           SKY/WX    TMP DP  RH WIND       PRES   REMARKS
LAWRENCEVILLE  FAIR      89  50  26 MISG      30.10F HX  86
FLORA*         FAIR      87  56  34 E7        30.10F HX  86
$$

ABBREVIATIONS USED IN REMARKS
   TC - TEMPERATURE IN CELSIUS
  WCI - WIND CHILL INDEX
   HX - HEAT INDEX
  VSB - VISIBILITY
$$





USA.gov is the U.S. government's official web portal to all federal, state and local government web resources and services.